Flag for Poland Weather past 2 weeks in Poznan, Poland

Now
39 °F

Fog.


Feels Like: 34 °F
Forecast: 38 / 52 °F
Wind: 7 mph from Southeast

Location: Poznan Airport

Current Time: Oct 25, 2014 at 5:33:11 PM

Latest Report: Oct 25, 2014 at 5:00 PM


Visibility: 3 mi

Pressure: 30.21 "Hg

Humidity: 81%

Dew point: 34 °F

Location of PoznanLocation

Historic Weather in Poznan — Graph

°F

Poznan temperature yesterday

Maximum temperature yesterday: 48 °F (at 3:00 PM)
Minimum temperature yesterday: 34 °F (at 8:00 AM)
Average temperature yesterday: 41 °F

Past Weeks' High & Low Weather Summary

 TemperatureHumidityPressure
High72 °F (Oct 13, 3:00 PM)100% (Oct 13, 12:30 AM)30.33 "Hg (Oct 13, 12:30 AM)
Low32 °F (Oct 25, 4:00 AM)60% (Oct 10, 4:00 PM)29.47 "Hg (Oct 22, 3:30 AM)
Average53 °F88%29.93 "Hg
* Reported Oct 10 4:00 PM — Oct 25 4:30 PM, Poznan, Weather by CustomWeather, © 2014

Note: Actual official high and low records may vary slightly from our data, if they occured in-between our weather recording intervals... More about our weather records

Advertising

Poznan weather history for previous 24 hours

 ConditionsComfort  
Time TempWeatherWind HumidityBarometerVisibility
4:30 PM
Oct 25
39 °FFog.7 mph81%30.21 "Hg3 mi
4:00 PM39 °FPartly sunny.8 mph81%30.21 "Hg4 mi
3:30 PM39 °FPartly sunny.6 mph81%30.21 "Hg4 mi
3:00 PM39 °FPartly sunny.8 mph81%30.21 "Hg4 mi
2:30 PM39 °FPartly sunny.8 mph75%30.21 "Hg5 mi
2:00 PM39 °FPartly sunny.10 mph75%30.21 "Hg5 mi
1:30 PM37 °FPartly sunny.10 mph81%30.21 "Hg4 mi
1:00 PM37 °FPartly sunny.8 mph81%30.21 "Hg4 mi
12:30 PM37 °FPartly sunny.10 mph81%30.21 "Hg4 mi
12:00 PM37 °FPartly sunny.7 mph81%30.21 "Hg4 mi
11:30 AM36 °FPartly sunny.9 mph87%30.21 "Hg4 mi
11:00 AM36 °FPartly sunny.8 mph81%30.24 "Hg4 mi
10:30 AM36 °FPartly sunny.8 mph81%30.21 "Hg4 mi
10:00 AM36 °FPartly sunny.9 mph81%30.21 "Hg5 mi
9:30 AM36 °FPartly sunny.7 mph81%30.24 "Hg5 mi
9:00 AM34 °FPartly sunny.6 mph87%30.24 "Hg4 mi
8:30 AM34 °FPassing clouds.8 mph87%30.24 "Hg4 mi
8:00 AM34 °FPartly cloudy.8 mph87%30.24 "Hg4 mi
7:30 AM34 °FPassing clouds.9 mph87%30.24 "HgN/A
7:00 AM32 °FPassing clouds.10 mph93%30.24 "HgN/A
6:30 AM32 °FPassing clouds.9 mph87%30.24 "HgN/A
6:00 AM32 °FPassing clouds.10 mph87%30.24 "HgN/A
5:30 AM32 °FClear.9 mph87%30.24 "Hg10 mi
5:00 AM32 °FClear.10 mph80%30.24 "Hg10 mi
4:30 AM32 °FClear.10 mph87%30.24 "Hg10 mi
4:00 AM32 °FClear.10 mph87%30.24 "Hg10 mi
3:30 AM34 °FClear.12 mph81%30.27 "Hg10 mi
3:00 AM34 °FClear.9 mph81%30.27 "Hg10 mi
2:30 AM34 °FClear.8 mph81%30.27 "Hg10 mi
2:00 AM34 °FClear.8 mph81%30.27 "Hg10 mi
1:30 AM34 °FClear.9 mph87%30.27 "Hg10 mi
1:00 AM34 °FClear.10 mph87%30.30 "Hg10 mi
12:30 AM36 °FClear.8 mph81%30.30 "Hg10 mi
12:00 AM36 °FClear.9 mph81%30.30 "Hg10 mi
11:30 PM
Oct 24
36 °FClear.9 mph81%30.30 "Hg10 mi
11:00 PM37 °FClear.12 mph75%30.30 "Hg10 mi
10:30 PM37 °FClear.10 mph75%30.30 "Hg10 mi
10:00 PM37 °FClear.9 mph75%30.30 "Hg10 mi
9:30 PM39 °FClear.8 mph70%30.30 "Hg10 mi
9:00 PM39 °FClear.9 mph70%30.30 "Hg10 mi
8:30 PM39 °FClear.9 mph75%30.30 "Hg10 mi
8:00 PM39 °FClear.10 mph75%30.30 "Hg10 mi
7:30 PM41 °FClear.12 mph70%30.30 "Hg10 mi
7:00 PM41 °FClear.12 mph70%30.30 "Hg10 mi
6:30 PM43 °FSunny.10 mph71%30.30 "Hg10 mi
6:00 PM43 °FSunny.9 mph71%30.30 "Hg10 mi
5:30 PM45 °FSunny.8 mph71%30.27 "Hg10 mi
5:00 PM46 °FSunny.9 mph66%30.30 "Hg10 mi
Weather by CustomWeather, © 2014

See weather overviewHow to use our weather pages